Regional Weather Roundup
Issued by NWS

Home | Current Version | Previous Version | Graphics & Text | Print | Product List | Glossary On
Versions: 1 2 3 4 5 6 7 8 9 10 11 12 13 14 15 16 17 18 19 20 21 22 23 24 25 26 27 28 29 30 31 32 33 34 35 36 37 38 39 40 41 42 43 44 45 46 47 48 49 50
000
ASUS45 KABQ 012001
RWRNM
WEATHER ROUNDUP FOR NEW MEXICO
NATIONAL WEATHER SERVICE ALBUQUERQUE NM
200 PM MDT WED APR 01 2015

NOTE: "FAIR" MEANS FEW OR NO CLOUDS BELOW 12,000 FEET AGL WITH NO
       SIGNIFICANT WEATHER OR OBSTRUCTIONS TO VISION.

      THIS PRODUCT IS RELEASED AS TWO VERSIONS.  ONE VERSION NEAR
      THE TOP OF THE HOUR CONTAINING PRELIMINARY DATA FROM ALBUQUERQUE
      AND OTHER STATIONS.  A FINAL VERSION WITH ADDITIONAL DATA IS
      ISSUED ABOUT 10 MINUTES AFTER THE HOUR.

NMZ501-503-504-510>518-012100-
NORTHWEST PLATEAU/NORTHCENTRAL MOUNTAINS

CITY           SKY/WX    TMP DP  RH WIND       PRES   REMARKS
FARMINGTON     MOSUNNY   72  18  13 W28G37    29.90F
SANTA FE       SUNNY     70  19  14 W22G36    29.93F
TAOS           MOSUNNY   64  23  20 W15G21    29.95F
ANGEL FIRE     MOCLDY    57  24  27 W16G35    29.99F

$$
NMZ402-403-502-505>509-012100-
WESTCENTRAL MOUNTAINS/SOUTHWEST MOUNTAINS

CITY           SKY/WX    TMP DP  RH WIND       PRES   REMARKS
GALLUP         FAIR      68  20  16 W28G39    30.00F
SILVER CITY    FAIR      72  28  20 W20G29    30.06F

$$
NMZ407-409-411-412-012100-
SOUTHERN DESERTS

CITY           SKY/WX    TMP DP  RH WIND       PRES   REMARKS
DEMING         FAIR      78  34  20 W22G35    29.99F
HOLLOMAN AFB     N/A     79  32  18 W9        29.93F
ALAMOGORDO     MOSUNNY   77  30  18 NW5G26    29.95F
T OR C         FAIR      77  30  17 S10G20    29.93F

$$
NMZ519>523-012100-
CENTRAL VALLEYS/CENTRAL HIGHLANDS

CITY           SKY/WX    TMP DP  RH WIND       PRES   REMARKS
ALBUQUERQUE    PTSUNNY   72  25  17 W22G28    29.93F
DOUBLE EAGLE   PTSUNNY   72  23  16 W22G29    29.96F
MORIARTY ARPT  FAIR      70  18  13 W20G30    29.96F
CLINES CORNERS SUNNY     66  22  18 W30G39    29.97F
BELEN          FAIR      76  22  13 W22G28    29.93F
SOCORRO        NOT AVBL

$$
NMZ524>526-539-540-012100-
SOUTHCENTRAL MOUNTAINS

CITY           SKY/WX    TMP DP  RH WIND       PRES   REMARKS
RUIDOSO        NOT AVBL

$$
NMZ527>531-012100-
NORTHEAST HIGHLANDS/NORTHEAST PLAINS

CITY           SKY/WX    TMP DP  RH WIND       PRES   REMARKS
LAS VEGAS      MOSUNNY   66  17  15 W20G26    29.93F
RATON          MOSUNNY   71  17  12 SW21G33   29.84F
CLAYTON        SUNNY     78  21  12 SW23G38   29.77F

$$
NMZ532>537-012100-
EASTCENTRAL PLAINS

CITY           SKY/WX    TMP DP  RH WIND       PRES   REMARKS
TUCUMCARI      SUNNY     85  25  11 W28G38    29.77F
CANNON AFB     SUNNY     81  28  14 W16G29    29.82F
CLOVIS AIRPORT MOSUNNY   81  30  16 W15G26    29.82F

$$
NMZ028-029-538-012100-
SOUTHEAST PLAINS

CITY           SKY/WX    TMP DP  RH WIND       PRES   REMARKS
ROSWELL        MOSUNNY   84  31  14 MISG      29.83F
ARTESIA        MOSUNNY   82  36  18 S9G15     29.84F
CARLSBAD       MOSUNNY   84  32  15 CALM      29.84F
HOBBS          MOSUNNY   81  32  17 W7        29.86F


$$


USA.gov is the U.S. government's official web portal to all federal, state and local government web resources and services.